Theta_e
343 334 335 332 332 335 338 341 342 344 343 343 343 342 343 341 333 336 341 340 340 340 341 341 341 341 339 339 341 337 336 335 334 334 340 341 341 344 345 341 333 332 333
343 342 340 339 334 336 338 341 342 342 343 343 342 341 336 332 344 341 341 341 340 339 339 338 339 336 336 336 337 344 343 343 342 339 336 341 345 344 342 337 332 330 329
342 343 342 339 335 340 338 341 342 341 341 336 339 340 338 340 341 341 342 339 336 334 336 339 337 332 332 339 344 345 345 345 345 345 340 332 336 337 337 335 334 334 332
340 341 341 340 337 339 339 340 341 339 339 337 340 341 342 342 342 343 340 336 337 333 327 325 332 337 331 342 344 345 345 345 345 345 344 341 331 332 333 337 336 334 334
339 339 341 341 341 340 340 339 341 337 338 337 342 342 342 341 341 340 335 331 328 324 319 317 318 322 326 337 340 339 342 345 344 345 342 328 343 342 342 340 339 338 335
339 339 342 341 342 341 341 339 341 335 338 340 342 342 340 339 338 334 332 331 332 323 320 317 315 320 324 336 340 342 343 343 343 342 342 338 328 337 341 334 333 339 339
338 341 343 343 343 343 341 339 341 336 338 341 340 339 338 339 337 334 331 331 329 327 325 322 318 322 333 339 341 342 342 342 340 336 326 324 326 326 326 326 328 333 329
338 342 343 344 344 343 341 340 338 339 340 341 335 335 335 337 337 336 336 338 334 335 329 331 330 331 334 335 336 338 341 337 324 317 318 318 317 316 319 320 320 322 325
338 342 341 340 341 343 341 340 337 341 336 334 334 335 334 335 337 337 339 336 338 337 340 335 336 336 335 335 334 333 332 329 327 325 325 324 322 321 320 319 318 317 316
338 341 339 339 339 339 339 340 340 335 335 338 331 331 327 334 335 339 339 337 344 347 345 345 339 338 338 337 335 334 335 331 331 330 330 330 329 329 329 329 327 326 324
344 340 339 338 338 339 339 337 336 338 345 340 346 349 344 337 335 338 339 347 348 349 349 349 349 342 340 338 338 336 337 332 331 332 332 332 333 333 333 333 333 333 333
346 340 340 339 338 339 336 337 337 343 348 348 348 350 346 335 337 339 344 348 349 351 351 351 349 350 347 344 339 338 341 341 333 333 333 333 333 333 334 334 335 335 336
346 347 341 341 339 338 337 337 343 344 343 347 349 347 345 336 335 339 342 348 348 350 350 349 350 347 348 346 345 339 343 345 342 336 334 334 334 334 334 334 334 335 335
348 348 346 346 346 343 339 342 347 347 347 343 347 344 346 348 341 344 343 347 348 349 349 350 351 346 347 348 347 343 344 344 346 347 345 336 339 334 334 334 334 335 335
346 348 347 347 349 347 347 349 349 350 350 343 342 343 346 348 349 345 343 347 349 351 346 349 350 348 348 346 348 345 346 347 346 349 348 347 347 344 342 338 335 334 335
345 348 348 348 348 348 349 351 349 350 350 350 347 348 344 346 347 346 343 346 349 349 342 348 350 350 348 346 346 349 348 348 348 343 348 349 348 348 346 348 339 337 336
348 348 348 346 347 345 349 348 347 348 349 348 348 345 349 346 345 343 345 344 346 348 348 348 348 350 350 348 348 348 347 347 348 345 349 346 348 346 346 348 346 343 342
348 348 348 347 345 343 344 346 347 347 347 347 347 346 347 345 342 347 343 345 348 346 348 348 349 350 349 350 347 349 349 349 350 349 349 348 341 343 347 348 349 344 351
347 348 348 347 344 345 343 346 346 347 349 347 344 343 339 341 347 348 345 344 345 347 348 348 354 350 347 349 348 349 348 348 348 348 346 345 347 345 347 347 346 345 352
345 346 348 346 346 342 340 343 348 347 348 347 345 345 345 335 346 346 351 350 344 347 347 347 350 348 349 350 347 349 347 348 348 347 344 345 346 345 346 346 345 347 348
345 346 348 347 346 347 342 343 349 348 347 346 346 345 347 347 343 350 353 350 345 348 350 347 350 346 351 350 347 348 348 347 347 345 345 345 346 346 345 347 348 346 343
345 345 346 347 348 347 346 340 347 348 344 346 345 346 347 348 345 344 352 348 344 345 346 347 346 348 353 353 352 345 347 349 349 346 346 345 343 345 346 344 345 343 341
344 345 346 347 347 348 347 344 344 346 345 344 346 348 346 346 345 338 350 349 348 346 348 348 341 347 353 352 351 344 350 352 349 349 347 346 345 347 348 348 346 344 341
343 343 345 346 347 347 348 345 344 348 347 348 347 347 347 347 347 344 338 349 350 350 348 348 349 345 350 351 353 350 350 351 348 344 345 343 346 350 348 346 344 345 343
344 344 343 343 345 347 347 346 347 346 348 346 348 351 348 348 348 343 337 341 350 348 345 348 353 350 352 349 347 349 352 353 349 349 350 349 351 349 348 346 342 340 343
347 345 344 345 346 345 348 345 347 348 349 347 346 350 350 351 349 348 341 335 343 347 343 346 347 354 352 347 343 349 352 350 348 348 351 349 348 348 347 344 341 341 342
Wind_Speed
18 20 18 18 19 18 19 18 19 20 22 22 23 24 23 23 22 23 23 22 20 19 19 18 18 18 18 18 19 19 19 18 17 16 16 17 18 18 17 13 11 14 14
21 21 19 17 19 18 18 18 18 20 21 21 22 22 22 23 22 21 21 20 18 18 17 16 16 15 17 18 19 21 22 21 22 19 13 14 14 15 13 11 10 12 12
21 21 20 18 19 18 17 18 18 20 20 21 23 21 22 20 21 20 18 18 18 16 15 14 16 16 17 20 21 20 21 19 16 15 14 10 10 11 10 10 11 11 12
20 18 18 17 18 16 17 18 19 19 19 20 21 21 21 20 19 18 19 18 18 14 13 13 13 14 17 21 21 24 21 18 16 11 8 8 10 11 12 12 12 12 10
17 16 15 16 18 18 18 19 19 19 19 21 21 21 21 20 19 19 18 17 17 15 15 14 14 15 18 20 22 22 19 16 14 8 5 11 10 13 13 11 10 10 10
16 13 13 17 19 21 21 20 19 20 20 19 19 19 19 18 19 19 19 18 18 18 18 18 17 18 22 24 23 20 18 13 12 5 2 5 8 10 8 7 8 8 8
18 12 15 19 21 23 24 21 18 19 18 18 18 18 17 17 19 19 19 20 20 20 22 21 21 23 26 26 24 22 16 12 5 3 6 9 11 11 9 9 8 7 6
19 21 23 22 22 25 26 23 19 18 18 15 17 17 15 16 18 19 20 21 22 23 26 28 27 27 26 25 23 18 14 10 13 12 13 14 14 13 13 13 11 11 10
19 22 24 24 23 25 27 22 20 18 17 17 16 15 14 16 18 18 20 22 25 26 27 28 30 29 27 25 22 17 13 15 16 17 18 18 16 16 15 14 13 12 11
18 21 25 23 22 24 27 23 20 18 18 18 19 19 16 17 18 19 20 24 20 19 21 23 25 27 24 22 19 15 17 15 17 19 19 19 18 18 18 17 16 15 14
17 19 22 22 20 22 29 20 19 19 20 20 20 19 19 17 16 20 23 20 16 14 14 13 16 18 22 22 19 14 17 18 17 18 19 19 18 18 18 17 17 16 15
17 21 19 19 20 24 31 16 17 20 19 18 16 18 15 17 18 20 19 14 15 13 12 13 11 12 17 18 15 10 14 14 17 17 17 17 16 16 16 15 15 14 14
16 20 20 18 20 25 21 17 16 16 12 15 17 15 12 13 16 14 10 13 15 18 12 11 11 18 15 16 15 11 9 8 14 19 17 15 14 14 13 13 12 12 12
28 21 18 18 19 17 17 16 12 11 13 13 16 16 16 11 9 9 8 7 8 13 9 13 11 14 12 10 10 8 5 6 9 12 16 16 17 15 13 12 11 10 10
30 24 22 25 22 15 14 10 8 10 10 12 8 19 12 11 6 11 5 5 7 7 6 14 15 12 11 8 12 11 2 5 7 8 10 14 15 15 15 14 12 10 9
27 27 25 27 25 20 18 17 12 16 11 10 9 16 13 13 10 11 9 7 5 4 10 11 9 7 10 9 10 7 4 2 6 5 5 8 11 11 11 12 12 10 9
28 31 29 24 24 23 23 21 16 12 12 10 9 14 16 13 13 16 11 9 3 8 8 8 8 5 7 5 4 7 5 4 7 6 6 5 7 8 9 10 11 9 9
34 33 28 25 23 22 23 26 21 15 13 12 11 9 15 14 17 14 12 6 6 9 6 4 5 5 6 5 2 0 6 4 4 3 3 7 5 6 7 8 11 10 8
28 29 26 21 17 26 25 26 24 19 16 15 13 9 12 15 20 15 15 10 7 6 2 4 2 5 9 2 2 6 6 4 3 4 7 5 5 7 7 10 14 13 9
26 25 21 23 19 18 23 23 23 21 19 19 12 8 6 12 20 17 9 13 8 9 6 5 4 8 5 2 4 3 9 9 10 7 1 4 5 6 9 12 14 13 13
27 28 24 24 23 19 20 31 23 19 23 21 18 13 11 9 20 19 14 10 11 8 5 8 10 6 5 3 7 5 6 7 7 9 5 5 1 1 8 10 10 15 17
30 29 28 26 24 24 21 25 28 21 17 22 19 18 16 14 12 22 16 12 8 11 8 10 8 11 3 1 6 8 4 6 14 2 9 7 9 8 12 12 16 18 17
32 29 28 30 28 26 24 21 25 21 18 22 21 21 21 20 15 22 20 16 13 14 9 9 12 12 9 5 1 3 2 1 3 3 4 3 8 10 10 12 13 13 14
32 29 27 26 32 30 26 24 26 28 28 25 22 23 24 21 18 17 28 21 18 15 16 12 8 11 10 8 7 4 9 7 5 9 8 9 5 9 10 14 15 21 18
31 31 28 26 28 29 28 28 25 27 24 28 25 20 25 23 18 14 23 28 24 20 21 17 14 12 15 12 11 9 6 7 7 8 15 15 15 15 17 15 15 19 21
29 32 30 26 23 25 26 29 28 28 25 25 28 27 24 26 23 18 18 25 31 25 21 22 19 17 16 21 19 16 11 8 8 10 15 17 19 20 18 17 18 19 12
Wind_Direction
142 150 136 127 121 113 107 100 96 99 99 99 99 100 100 100 100 100 99 99 99 100 104 107 108 111 109 109 109 103 104 103 102 102 103 103 107 104 99 91 103 101 103
136 149 146 138 128 118 113 107 101 107 100 100 101 102 102 102 100 101 98 99 97 94 94 95 99 103 107 109 110 104 99 99 95 89 75 97 108 102 102 87 101 102 105
130 136 146 135 136 122 123 116 108 110 105 103 103 104 102 101 100 101 94 91 89 89 96 99 96 99 108 109 105 99 99 94 90 79 74 78 105 106 103 104 100 98 100
125 132 139 141 144 136 130 123 116 112 109 111 107 107 103 100 99 98 95 89 85 85 86 95 108 107 115 113 101 98 94 94 88 105 66 66 100 103 102 95 92 92 89
114 120 134 147 151 145 138 131 125 117 114 112 108 108 103 98 97 97 92 89 83 79 77 82 93 109 117 121 105 98 98 97 96 115 105 74 102 101 98 91 94 87 83
127 126 132 148 152 151 141 137 130 120 115 113 109 110 103 99 100 95 91 84 79 78 79 81 89 106 115 118 111 102 106 118 117 129 126 39 113 112 113 89 97 94 90
133 121 130 143 150 150 146 138 135 125 119 116 112 109 102 100 100 96 88 84 82 80 81 82 90 104 111 113 107 104 111 102 35 47 102 108 103 102 99 97 102 106 93
129 119 114 126 140 148 150 146 140 123 117 112 112 106 105 104 104 96 92 87 85 84 83 85 92 100 104 103 104 106 109 95 72 91 97 90 84 82 83 86 87 87 86
132 126 120 120 128 145 148 144 136 119 114 110 103 102 105 109 108 99 92 90 92 89 88 93 92 94 98 101 104 102 76 55 73 82 84 82 83 84 84 82 81 80 78
128 130 131 125 125 143 144 128 130 118 113 110 110 101 106 115 114 104 95 99 96 91 90 87 95 96 96 101 106 93 69 64 73 81 83 83 83 84 84 82 83 82 80
121 135 139 135 132 144 146 121 120 120 115 113 110 100 97 108 116 105 104 95 82 76 73 79 79 99 99 97 108 99 67 60 72 77 78 79 79 78 78 78 78 78 79
139 138 144 141 132 143 149 127 125 127 121 113 111 99 95 104 121 110 101 79 66 57 45 51 70 92 91 87 113 97 74 54 56 66 70 73 74 74 74 73 72 73 73
162 153 149 141 134 143 154 143 131 129 134 116 123 114 116 109 118 120 89 76 77 63 68 72 84 74 108 96 97 155 65 44 49 54 60 62 63 65 65 65 65 63 62
164 167 154 147 146 136 149 150 129 129 129 139 132 129 136 124 138 128 102 55 79 61 73 113 101 90 89 81 85 133 61 36 37 39 44 53 52 50 52 52 53 54 54
173 175 161 149 161 161 161 150 190 162 137 136 140 141 150 153 152 147 150 84 103 86 111 129 117 118 107 68 106 140 26 41 36 19 34 36 33 41 42 36 37 39 40
171 170 172 159 166 174 173 185 183 183 170 161 165 156 160 158 155 171 186 130 109 135 124 116 100 101 152 89 149 146 133 84 16 357 38 21 14 18 23 25 25 26 26
171 166 171 172 172 177 180 184 183 162 149 179 172 185 167 180 181 149 154 130 100 125 117 72 55 56 148 111 66 122 112 3 349 21 44 18 357 356 0 7 15 23 22
167 171 175 178 188 195 193 187 177 173 188 208 203 209 204 185 172 153 145 175 170 141 115 3 333 95 127 147 244 34 179 321 323 350 13 331 351 25 360 349 354 348 355
180 180 182 192 199 194 194 196 182 185 188 207 218 223 213 193 167 165 165 169 183 179 231 287 32 139 174 170 206 265 218 234 273 310 343 339 349 9 359 344 345 344 339
189 190 183 194 206 193 202 194 184 189 187 198 220 218 193 193 173 173 181 186 213 196 213 204 193 186 173 265 291 259 216 214 242 284 6 272 293 349 339 334 342 333 339
192 195 189 193 203 208 194 183 182 196 195 192 204 225 225 216 186 181 173 180 204 216 194 237 218 191 194 194 314 221 226 212 243 252 245 251 133 10 329 337 325 326 331
195 199 200 197 202 213 208 194 187 194 204 198 198 216 218 233 214 198 190 187 191 217 215 234 234 215 223 225 300 285 299 240 243 216 211 264 271 278 311 304 308 316 311
201 203 207 205 205 211 215 206 197 197 199 195 203 222 220 233 248 213 199 194 205 211 235 236 220 224 216 189 162 327 281 313 261 211 220 268 273 304 308 323 310 317 320
206 210 214 213 211 215 216 213 200 201 209 210 214 224 228 235 247 247 210 206 205 215 218 224 226 217 233 213 211 265 267 304 310 297 250 315 288 314 324 322 323 305 300
211 212 218 219 218 217 219 216 209 208 219 217 213 212 227 240 245 244 222 209 209 212 225 221 213 232 234 236 238 234 240 251 283 300 299 295 293 291 296 294 308 339 297
217 217 217 217 220 221 216 212 207 216 221 229 222 215 225 232 236 244 236 221 216 217 221 215 226 229 242 242 237 236 247 241 242 280 303 294 301 305 310 299 305 336 309